Grazzanise, Italy

10:01 PM CEST on May 24, 2017 (GMT +0200)
Grazzanise Mil

Weather History for LIRM - December, 2012

Change the Weather History Date:

Saturday, December 15, 2012

  Actual Average (LIRN) Record (LIRN)
Temperature  
Mean Temperature 52 °F -  
Max Temperature 61 °F 56 °F 66 °F (2000)
Min Temperature 44 °F 39 °F 24 °F (2007)
Degree Days  
Heating Degree Days 12    
Growing Degree Days 2 (Base 50)    
Moisture  
Dew Point 51 °F    
Average Humidity 88    
Maximum Humidity 94    
Minimum Humidity 79    
Precipitation  
Precipitation 0.00 in 0.14 in - ()
Sea Level Pressure  
Sea Level Pressure 30.09 in    
Wind  
Wind Speed 6 mph ()    
Max Wind Speed 14 mph    
Max Gust Speed 26 mph    
Visibility 4.2 miles    
Events Fog , Rain    
Averages and records for this station are not official NWS values.
T = Trace of Precipitation, MM = Missing Value Source: Averaged Metar Reports

Daily Weather History Graph

Daily Weather History Graph

Search for Another Location

Airport or City:

Trip Planner

Search our weather history database for the weather conditions in past years. The results will help you decide how hot, cold, wet, or windy it might be!

Date:

Astronomy

Dec. 15, 2012 Rise Set
Actual Time 7:21 AM CET 4:36 PM CET
Civil Twilight 6:50 AM CET 5:07 PM CET
Nautical Twilight 6:16 AM CET 5:41 PM CET
Astronomical Twilight 5:42 AM CET 6:15 PM CET
Moon 9:00 AM CET (12/15) 7:20 PM CET (12/15)
Length of Visible Light 10h 16m
Length of Day
9h 14m
Waxing Crescent, 7% of the Moon is Illuminated
Dec 15
Waxing Crescent
Dec 20
First Quarter
Dec 28
Full
Jan 5
Last Quarter
Jan 11
New

Hourly Weather History & Observations

Time (CET) Temp. Windchill Dew Point Humidity Pressure Visibility Wind Dir Wind Speed Gust Speed Precip Events Conditions
12:55 AM 44.6 °F 43.1 °F 41.0 °F 87% 30.12 in 0.5 mi East 3.5 mph - N/A Fog Fog
1:07 AM 44.6 °F 42.2 °F 41.0 °F 87% 30.12 in 1.2 mi East 4.6 mph - N/A   Mostly Cloudy
1:55 AM 46.4 °F - 42.8 °F 87% 30.12 in - ENE 2.3 mph - N/A   Mostly Cloudy
2:55 AM 46.4 °F - 42.8 °F 87% 30.12 in 0.9 mi NE 2.3 mph - N/A   Mostly Cloudy
3:55 AM 46.4 °F - 41.0 °F 81% 30.12 in 0.7 mi NE 2.3 mph - N/A   Mostly Cloudy
4:00 AM 46 °F - 42 °F 79% 30.15 in 1 mi NE 2.3 mph - -   Mist
4:55 AM 46.4 °F - 42.8 °F 87% 30.12 in 0.7 mi East 2.3 mph - N/A   Mostly Cloudy
5:55 AM 48.2 °F - 42.8 °F 82% 30.12 in 2.2 mi East 2.3 mph - N/A   Mostly Cloudy
6:55 AM 50.0 °F - 44.6 °F 82% 30.12 in 2.2 mi East 2.3 mph - N/A   Scattered Clouds
7:00 AM 49 °F - 44 °F 79% 30.14 in 2 mi East 2.3 mph - -  
7:55 AM 46.4 °F 45.2 °F 42.8 °F 87% 30.15 in 1.6 mi North 3.5 mph - N/A Rain Light Rain
8:55 AM 50.0 °F - 44.6 °F 82% 30.12 in 1.2 mi West 1.2 mph - N/A   Mostly Cloudy
9:16 AM 50.0 °F - 44.6 °F 82% 30.12 in 4.3 mi South 2.3 mph - N/A   Mostly Cloudy
9:55 AM 57.2 °F - 53.6 °F 88% 30.12 in 6.2 mi SW 10.4 mph - N/A   Mostly Cloudy
10:00 AM 57 °F - 53 °F 81% 30.14 in 6 mi SW 10.4 mph - -   Partly Cloudy
10:55 AM 59.0 °F - 55.4 °F 88% 30.12 in 6.2 mi SSW 13.8 mph - N/A   Mostly Cloudy
11:55 AM 59.0 °F - 55.4 °F 88% 30.12 in 6.2 mi SW 13.8 mph - N/A   Mostly Cloudy
12:55 PM 60.8 °F - 57.2 °F 88% 30.09 in 6.2 mi SW 13.8 mph - N/A   Mostly Cloudy
1:00 PM 61 °F - 58 °F 86% 30.11 in 6 mi SW 13.8 mph - -   Overcast
1:55 PM 60.8 °F - 57.2 °F 88% 30.06 in 6.2 mi SW 13.8 mph 26.5 mph N/A   Mostly Cloudy
2:55 PM 59.0 °F - 57.2 °F 94% 30.06 in 3.7 mi SW 13.8 mph - N/A Rain Light Rain
3:55 PM 59.0 °F - 57.2 °F 94% 30.04 in 4.3 mi WSW 12.7 mph - N/A Rain Light Rain
4:00 PM 59 °F - 56 °F 88% 30.06 in 4 mi WSW 12.7 mph - - Rain Light Rain
4:55 PM 59.0 °F - 57.2 °F 94% 30.04 in 4.3 mi SW 9.2 mph - N/A   Mostly Cloudy
5:55 PM 59.0 °F - 57.2 °F 94% 30.04 in 6.2 mi SW 10.4 mph - N/A   Mostly Cloudy
6:55 PM 59.0 °F - 57.2 °F 94% 30.04 in 6.2 mi SSW 11.5 mph - N/A   Mostly Cloudy
7:00 PM 59 °F - 57 °F 89% 30.06 in 7 mi SSW 11.5 mph - -   Overcast
7:55 PM 59.0 °F - 57.2 °F 94% 30.04 in 6.2 mi SSW 8.1 mph - N/A   Mostly Cloudy
8:55 PM 59.0 °F - 57.2 °F 94% 30.04 in 6.2 mi SW 8.1 mph - N/A   Mostly Cloudy
9:55 PM 59.0 °F - 57.2 °F 94% 30.04 in 6.2 mi SSW 8.1 mph - N/A   Mostly Cloudy
10:00 PM 59 °F - 56 °F 88% 30.05 in 7 mi SSW 8.1 mph - -   Overcast
10:55 PM 59.0 °F - 57.2 °F 94% 30.04 in 6.2 mi SSW 8.1 mph - N/A   Mostly Cloudy
11:55 PM 59.0 °F - 57.2 °F 94% 30.04 in 6.2 mi SSW 8.1 mph - N/A   Mostly Cloudy